Weather History for Newark Heath, OH

Change the Weather History Date:

Thursday, November 21, 2013

  Actual Average Record
Temperature  
Mean Temperature 45 °F -  
Max Temperature 55 °F 47 °F 71 °F (1979)
Min Temperature 35 °F 31 °F 10 °F (2014)
Degree Days  
Heating Degree Days 20    
Moisture  
Dew Point 36 °F    
Average Humidity 64    
Maximum Humidity 86    
Minimum Humidity 51    
Precipitation  
Precipitation 0.08 in - - ()
Sea Level Pressure  
Sea Level Pressure 30.29 in    
Wind  
Wind Speed 3 mph (SSE)    
Max Wind Speed 8 mph    
Max Gust Speed -    
Visibility 10 miles    
Events Rain    
Averages and records for this station are not official NWS values.
T = Trace of Precipitation, MM = Missing Value Source: NWS Daily Summary

Daily Weather History Graph

Daily Weather History Graph

Search for Another Location

Airport:

Trip Planner

Search our weather history database for the weather conditions in past years. The results will help you decide how hot, cold, wet, or windy it might be!

Date:

Astronomy

Nov. 21, 2013 Rise Set
Actual Time 7:22 AM EST 5:09 PM EST
Civil Twilight 6:52 AM EST 5:38 PM EST
Nautical Twilight 6:19 AM EST 6:11 PM EST
Astronomical Twilight 5:47 AM EST 6:43 PM EST
Moon 8:44 PM EST (11/21) 10:27 AM EST (11/21)
Length of Visible Light 10h 45m
Length of Day
9h 46m
Waning Gibbous, 85% of the Moon is Illuminated
Nov 21
Waning Gibbous
Nov 25
Last Quarter
Dec 2
New
Dec 9
First Quarter
Dec 17
Full

Hourly Weather History & Observations

Time (EST) Temp. Windchill Dew Point Humidity Pressure Visibility Wind Dir Wind Speed Gust Speed Precip Events Conditions
12:54 AM 35.1 °F - 30.0 °F 82% 30.31 in 10.0 mi Calm Calm - N/A   Overcast
1:54 AM 43.0 °F 39.5 °F 27.0 °F 53% 30.32 in 10.0 mi SE 5.8 mph - N/A   Overcast
2:54 AM 43.0 °F 40.3 °F 26.1 °F 51% 30.33 in 10.0 mi SSE 4.6 mph - N/A   Overcast
3:54 AM 42.1 °F 40.2 °F 26.1 °F 53% 30.33 in 10.0 mi SE 3.5 mph - N/A   Mostly Cloudy
4:54 AM 42.1 °F 40.2 °F 26.1 °F 53% 30.35 in 10.0 mi SSE 3.5 mph - N/A   Overcast
5:54 AM 39.9 °F 37.8 °F 30.9 °F 70% 30.38 in 9.0 mi SSE 3.5 mph - 0.03 in Rain Light Rain
6:54 AM 39.0 °F 35.7 °F 35.1 °F 86% 30.38 in 10.0 mi East 4.6 mph - 0.04 in Rain Light Rain
7:54 AM 39.0 °F - 33.1 °F 79% 30.38 in 10.0 mi Calm Calm - 0.00 in   Overcast
8:54 AM 39.9 °F - 34.0 °F 79% 30.38 in 9.0 mi Calm Calm - 0.00 in Rain Light Rain
9:54 AM 42.1 °F - 34.0 °F 73% 30.38 in 10.0 mi Calm Calm - 0.00 in   Overcast
10:54 AM 45.0 °F 41.2 °F 32.0 °F 60% 30.38 in 10.0 mi SSE 6.9 mph - N/A   Overcast
11:54 AM 48.0 °F - 34.0 °F 58% 30.35 in 10.0 mi SSE 6.9 mph - N/A   Mostly Cloudy
12:54 PM 52.0 °F - 35.1 °F 53% 30.32 in 10.0 mi South 5.8 mph - N/A   Scattered Clouds
1:54 PM 53.1 °F - 36.0 °F 52% 30.28 in 10.0 mi SSE 6.9 mph - N/A   Partly Cloudy
2:09 PM 53.6 °F - 37.4 °F 54% 30.26 in 10.0 mi SE 5.8 mph - N/A   Mostly Cloudy
2:33 PM 53.6 °F - 37.4 °F 54% 30.25 in 10.0 mi Calm Calm - N/A   Scattered Clouds
2:54 PM 55.0 °F - 37.9 °F 53% 30.25 in 10.0 mi SSE 8.1 mph - N/A   Partly Cloudy
3:54 PM 55.9 °F - 39.9 °F 55% 30.25 in 10.0 mi SSE 6.9 mph - N/A   Overcast
4:31 PM 55.4 °F - 39.2 °F 54% 30.23 in 10.0 mi SSE 4.6 mph - N/A   Overcast
4:54 PM 55.0 °F - 39.9 °F 57% 30.25 in 10.0 mi SSE 4.6 mph - N/A   Overcast
5:54 PM 54.0 °F - 39.9 °F 59% 30.26 in 10.0 mi South 4.6 mph - N/A   Overcast
6:54 PM 54.0 °F - 39.9 °F 59% 30.27 in 10.0 mi Calm Calm - N/A   Overcast
7:11 PM 53.6 °F - 39.2 °F 58% 30.25 in 10.0 mi SSE 4.6 mph - N/A   Overcast
7:54 PM 53.1 °F - 39.9 °F 61% 30.26 in 10.0 mi Calm Calm - 0.00 in   Overcast
8:54 PM 50.0 °F - 41.0 °F 71% 30.25 in 10.0 mi Calm Calm - N/A   Overcast
9:54 PM 50.0 °F - 41.0 °F 71% 30.23 in 10.0 mi Calm Calm - N/A   Overcast
10:54 PM 50.0 °F - 42.1 °F 74% 30.23 in 10.0 mi Calm Calm - 0.00 in Rain Light Rain
11:06 PM 50.0 °F - 42.8 °F 76% 30.21 in 10.0 mi Calm Calm - 0.00 in Rain Light Rain
11:25 PM 48.2 °F - 42.8 °F 82% 30.21 in 10.0 mi Calm Calm - 0.01 in Rain Light Rain
11:54 PM 48.0 °F - 44.1 °F 86% 30.22 in 10.0 mi Calm Calm - 0.01 in Rain Light Rain